| time (UTC) | temp F | wind direction | speed MPH | gust MPH | rain 1hr in | rain 24hr in | rain mn in | humidity % | barometer mb |
| 20260506122836 | 81 | 104 | 3.0 | 7.0 | 0.00 | 0.00 | 0.00 | 29 | 1013.6 |
| 20260506121835 | 81 | 137 | 5.0 | 9.0 | 0.00 | 0.00 | 0.00 | 30 | 1013.8 |
| 20260506120835 | 81 | 89 | 5.0 | 9.0 | 0.00 | 0.00 | 0.00 | 29 | 1014.1 |
| 20260506114836 | 81 | 231 | 2.0 | 7.0 | 0.00 | 0.00 | 0.00 | 30 | 1014.5 |
| 20260506113835 | 81 | 278 | 1.0 | 3.0 | 0.00 | 0.00 | 0.00 | 30 | 1014.7 |
| 20260506113336 | 81 | 329 | 2.0 | 5.0 | 0.00 | 0.00 | 0.00 | 30 | 1014.6 |
| 20260506112836 | 80 | 265 | 2.0 | 5.0 | 0.00 | 0.00 | 0.00 | 30 | 1014.8 |
| 20260506111835 | 80 | 293 | 2.0 | 7.0 | 0.00 | 0.00 | 0.00 | 30 | 1014.9 |
| 20260506105336 | 79 | 221 | 3.0 | 6.0 | 0.00 | 0.00 | 0.00 | 31 | 1015.5 |
| 20260506104335 | 79 | 283 | 2.0 | 6.0 | 0.00 | 0.00 | 0.00 | 31 | 1015.5 |
| 20260506103835 | 79 | 311 | 2.0 | 6.0 | 0.00 | 0.00 | 0.00 | 33 | 1015.5 |
| 20260506101336 | 77 | 293 | 5.0 | 8.0 | 0.00 | 0.00 | 0.00 | 33 | 1015.7 |
| 20260506100835 | 77 | 75 | 2.0 | 6.0 | 0.00 | 0.00 | 0.00 | 34 | 1015.9 |
| 20260506094835 | 76 | 286 | 3.0 | 7.0 | 0.00 | 0.00 | 0.00 | 36 | 1016.3 |
| 20260506093336 | 75 | 220 | 2.0 | 8.0 | 0.00 | 0.00 | 0.00 | 37 | 1016.5 |
| 20260506091335 | 74 | 253 | 1.0 | 5.0 | 0.00 | 0.00 | 0.00 | 41 | 1016.5 |
| 20260506085835 | 73 | 300 | 2.0 | 7.0 | 0.00 | 0.00 | 0.00 | 42 | 1016.6 |
| 20260506085335 | 73 | 291 | 3.0 | 8.0 | 0.00 | 0.00 | 0.00 | 43 | 1016.8 |
| 20260506084335 | 72 | 212 | 3.0 | 7.0 | 0.00 | 0.00 | 0.00 | 45 | 1016.8 |
| 20260506082335 | 70 | 290 | 2.0 | 6.0 | 0.00 | 0.00 | 0.00 | 50 | 1017.0 |
| 20260506081335 | 69 | 298 | 1.0 | 5.0 | 0.00 | 0.00 | 0.00 | 52 | 1016.8 |
| 20260506071835 | 63 | 114 | 2.0 | 5.0 | 0.00 | 0.00 | 0.00 | 59 | 1017.2 |
| 20260506071336 | 62 | 159 | 1.0 | 3.0 | 0.00 | 0.00 | 0.00 | 59 | 1017.3 |
| 20260506070835 | 62 | 156 | 2.0 | 5.0 | 0.00 | 0.00 | 0.00 | 61 | 1017.3 |
| 20260506070335 | 61 | 135 | 2.0 | 3.0 | 0.00 | 0.00 | 0.00 | 61 | 1017.5 |
| 20260506061835 | 55 | 169 | 1.0 | 3.0 | 0.00 | 0.00 | 0.00 | 67 | 1017.7 |
| 20260506060335 | 52 | 147 | 2.0 | 3.0 | 0.00 | 0.00 | 0.00 | 69 | 1017.7 |
| 20260506043835 | 43 | 351 | 1.0 | 1.0 | 0.00 | 0.00 | 0.00 | 69 | 1017.0 |
| 20260506043335 | 43 | 10 | 0.0 | 0.0 | 0.00 | 0.00 | 0.00 | 69 | 1016.9 |
| 20260506042835 | 42 | 11 | 0.0 | 0.0 | 0.00 | 0.00 | 0.00 | 69 | 1016.9 |
| 20260506042335 | 42 | 21 | 0.0 | 0.0 | 0.00 | 0.00 | 0.00 | 69 | 1016.9 |
| 20260506040835 | 42 | 358 | 0.0 | 0.0 | 0.00 | 0.00 | 0.00 | 69 | 1017.0 |
| 20260506040335 | 42 | 26 | 0.0 | 1.0 | 0.00 | 0.00 | 0.00 | 69 | 1016.8 |
| 20260506032835 | 43 | 83 | 1.0 | 1.0 | 0.00 | 0.00 | 0.00 | 67 | 1016.3 |
| 20260506032335 | 43 | 71 | 0.0 | 2.0 | 0.00 | 0.00 | 0.00 | 67 | 1016.2 |
| 20260506031835 | 43 | 67 | 1.0 | 1.0 | 0.00 | 0.00 | 0.00 | 67 | 1016.2 |
| 20260506031335 | 43 | 51 | 0.0 | 1.0 | 0.00 | 0.00 | 0.00 | 67 | 1016.3 |
| 20260506030835 | 43 | 57 | 0.0 | 1.0 | 0.00 | 0.00 | 0.00 | 67 | 1016.3 |
| 20260506025336 | 43 | 51 | 0.0 | 1.0 | 0.00 | 0.00 | 0.00 | 66 | 1015.7 |
| 20260506024835 | 43 | 53 | 0.0 | 0.0 | 0.00 | 0.00 | 0.00 | 66 | 1015.8 |
| 20260506024335 | 44 | 66 | 0.0 | 1.0 | 0.00 | 0.00 | 0.00 | 67 | 1015.8 |
| 20260506023835 | 44 | 17 | 0.0 | 1.0 | 0.00 | 0.00 | 0.00 | 67 | 1015.6 |
| 20260506021835 | 44 | 13 | 0.0 | 1.0 | 0.00 | 0.00 | 0.00 | 67 | 1015.6 |
| 20260506020335 | 44 | 152 | 0.0 | 2.0 | 0.00 | 0.00 | 0.00 | 66 | 1015.5 |
| 20260506015835 | 44 | 156 | 0.0 | 2.0 | 0.00 | 0.00 | 0.00 | 66 | 1015.2 |
| 20260506014335 | 45 | 117 | 0.0 | 2.0 | 0.00 | 0.00 | 0.00 | 66 | 1015.1 |
| 20260506013335 | 45 | 107 | 1.0 | 2.0 | 0.00 | 0.00 | 0.00 | 66 | 1015.1 |
| 20260506012835 | 45 | 133 | 2.0 | 3.0 | 0.00 | 0.00 | 0.00 | 66 | 1015.1 |
| 20260506012335 | 46 | 33 | 0.0 | 2.0 | 0.00 | 0.00 | 0.00 | 66 | 1015.1 |
| 20260506010335 | 46 | 54 | 0.0 | 1.0 | 0.00 | 0.00 | 0.00 | 65 | 1015.0 |
| 20260506004335 | 46 | 130 | 0.0 | 1.0 | 0.00 | 0.00 | 0.00 | 64 | 1014.4 |
| 20260506003835 | 46 | 148 | 2.0 | 3.0 | 0.00 | 0.00 | 0.00 | 64 | 1014.5 |
| 20260506003335 | 46 | 112 | 2.0 | 2.0 | 0.00 | 0.00 | 0.00 | 64 | 1014.4 |
| 20260506002335 | 47 | 67 | 0.0 | 1.0 | 0.00 | 0.00 | 0.00 | 63 | 1014.3 |
| 20260506001835 | 47 | 68 | 0.0 | 1.0 | 0.00 | 0.00 | 0.00 | 63 | 1014.4 |
| 20260506001335 | 47 | 64 | 0.0 | 0.0 | 0.00 | 0.00 | 0.00 | 63 | 1014.2 |
| 20260506000335 | 47 | 67 | 0.0 | 1.0 | 0.00 | 0.00 | 0.00 | 62 | 1014.4 |
| 20260505235835 | 48 | 65 | 0.0 | 0.0 | 0.00 | 0.00 | 0.00 | 62 | 1013.9 |
| 20260505235335 | 48 | 67 | 0.0 | 1.0 | 0.00 | 0.00 | 0.00 | 62 | 1014.0 |
| 20260505233835 | 48 | 62 | 0.0 | 1.0 | 0.00 | 0.00 | 0.00 | 62 | 1014.0 |
| 20260505232835 | 49 | 67 | 1.0 | 1.0 | 0.00 | 0.00 | 0.00 | 61 | 1014.0 |
| 20260505230335 | 49 | 56 | 0.0 | 1.0 | 0.00 | 0.00 | 0.00 | 61 | 1014.0 |
| 20260505225335 | 50 | 58 | 0.0 | 1.0 | 0.00 | 0.00 | 0.00 | 60 | 1013.7 |
| 20260505224335 | 50 | 48 | 0.0 | 1.0 | 0.00 | 0.00 | 0.00 | 59 | 1013.7 |
| 20260505223835 | 50 | 45 | 0.0 | 0.0 | 0.00 | 0.00 | 0.00 | 59 | 1013.8 |
| 20260505223335 | 50 | 54 | 0.0 | 0.0 | 0.00 | 0.00 | 0.00 | 59 | 1013.7 |
| 20260505222835 | 51 | 67 | 0.0 | 0.0 | 0.00 | 0.00 | 0.00 | 59 | 1013.7 |
| 20260505220835 | 52 | 61 | 1.0 | 1.0 | 0.00 | 0.00 | 0.00 | 58 | 1013.6 |
| 20260505220335 | 52 | 59 | 1.0 | 1.0 | 0.00 | 0.00 | 0.00 | 58 | 1013.7 |
| 20260505215835 | 52 | 47 | 0.0 | 2.0 | 0.00 | 0.00 | 0.00 | 57 | 1013.4 |
| 20260505215335 | 52 | 56 | 1.0 | 1.0 | 0.00 | 0.00 | 0.00 | 57 | 1013.5 |
| 20260505214835 | 53 | 27 | 0.0 | 0.0 | 0.00 | 0.00 | 0.00 | 57 | 1013.3 |
| 20260505214335 | 53 | 27 | 0.0 | 0.0 | 0.00 | 0.00 | 0.00 | 57 | 1013.4 |
| 20260505213835 | 53 | 27 | 0.0 | 0.0 | 0.00 | 0.00 | 0.00 | 57 | 1013.4 |
| 20260505212835 | 53 | 14 | 1.0 | 1.0 | 0.00 | 0.00 | 0.00 | 56 | 1013.4 |
| 20260505212335 | 54 | 17 | 1.0 | 2.0 | 0.00 | 0.00 | 0.00 | 56 | 1013.4 |
| 20260505211335 | 54 | 43 | 0.0 | 1.0 | 0.00 | 0.00 | 0.00 | 56 | 1013.4 |
| 20260505205336 | 55 | 12 | 1.0 | 2.0 | 0.00 | 0.00 | 0.00 | 54 | 1013.4 |
| 20260505202835 | 57 | 24 | 1.0 | 1.0 | 0.00 | 0.00 | 0.00 | 53 | 1013.3 |
| 20260505202335 | 57 | 19 | 1.0 | 2.0 | 0.00 | 0.00 | 0.00 | 53 | 1013.3 |
| 20260505201835 | 58 | 58 | 1.0 | 1.0 | 0.00 | 0.00 | 0.00 | 51 | 1013.4 |
| 20260505200835 | 58 | 72 | 1.0 | 2.0 | 0.00 | 0.00 | 0.00 | 51 | 1013.4 |
| 20260505200335 | 58 | 71 | 1.0 | 1.0 | 0.00 | 0.00 | 0.00 | 51 | 1013.3 |
| 20260505195835 | 58 | 48 | 1.0 | 1.0 | 0.00 | 0.00 | 0.00 | 50 | 1013.1 |
| 20260505193835 | 59 | 78 | 0.0 | 0.0 | 0.00 | 0.00 | 0.00 | 49 | 1013.1 |
| 20260505192834 | 60 | 78 | 0.0 | 1.0 | 0.00 | 0.00 | 0.00 | 48 | 1013.0 |
| 20260505192335 | 60 | 78 | 0.0 | 0.0 | 0.00 | 0.00 | 0.00 | 48 | 1013.0 |
| 20260505191835 | 60 | 78 | 0.0 | 1.0 | 0.00 | 0.00 | 0.00 | 48 | 1013.2 |
| 20260505190835 | 61 | 77 | 1.0 | 3.0 | 0.00 | 0.00 | 0.00 | 48 | 1013.0 |
| 20260505190335 | 61 | 74 | 1.0 | 2.0 | 0.00 | 0.00 | 0.00 | 47 | 1012.8 |
| 20260505184835 | 62 | 87 | 1.0 | 5.0 | 0.00 | 0.00 | 0.00 | 48 | 1012.9 |
| 20260505184335 | 62 | 91 | 3.0 | 5.0 | 0.00 | 0.00 | 0.00 | 47 | 1012.9 |
| 20260505182335 | 63 | 86 | 1.0 | 7.0 | 0.00 | 0.00 | 0.00 | 46 | 1012.7 |
| 20260505181835 | 64 | 86 | 3.0 | 6.0 | 0.00 | 0.00 | 0.00 | 46 | 1012.5 |
| 20260505180835 | 64 | 104 | 2.0 | 5.0 | 0.00 | 0.00 | 0.00 | 44 | 1012.5 |
| 20260505180334 | 65 | 101 | 2.0 | 5.0 | 0.00 | 0.00 | 0.00 | 44 | 1012.4 |
| 20260505175835 | 65 | 77 | 2.0 | 6.0 | 0.00 | 0.00 | 0.00 | 43 | 1012.8 |
| 20260505175335 | 65 | 84 | 2.0 | 5.0 | 0.00 | 0.00 | 0.00 | 43 | 1012.7 |
| 20260505174335 | 66 | 91 | 3.0 | 6.0 | 0.00 | 0.00 | 0.00 | 43 | 1012.6 |
| 20260505173335 | 67 | 114 | 2.0 | 6.0 | 0.00 | 0.00 | 0.00 | 42 | 1012.5 |
| 20260505172335 | 68 | 111 | 2.0 | 5.0 | 0.00 | 0.00 | 0.00 | 41 | 1012.3 |
| 20260505170334 | 69 | 91 | 4.0 | 8.0 | 0.00 | 0.00 | 0.00 | 39 | 1012.4 |
| 20260505165834 | 70 | 88 | 2.0 | 6.0 | 0.00 | 0.00 | 0.00 | 39 | 1012.7 |
| 20260505164835 | 70 | 118 | 3.0 | 6.0 | 0.00 | 0.00 | 0.00 | 39 | 1012.6 |
| 20260505164335 | 71 | 117 | 3.0 | 6.0 | 0.00 | 0.00 | 0.00 | 38 | 1012.6 |
| 20260505163335 | 71 | 80 | 5.0 | 7.0 | 0.00 | 0.00 | 0.00 | 37 | 1012.7 |
| 20260505162835 | 71 | 115 | 1.0 | 7.0 | 0.00 | 0.00 | 0.00 | 36 | 1012.5 |
| 20260505162335 | 72 | 89 | 4.0 | 9.0 | 0.00 | 0.00 | 0.00 | 36 | 1012.6 |
| 20260505160335 | 73 | 80 | 5.0 | 8.0 | 0.00 | 0.00 | 0.00 | 35 | 1012.6 |
| 20260505152335 | 75 | 87 | 4.0 | 10.0 | 0.00 | 0.00 | 0.00 | 32 | 1013.1 |
| 20260505151335 | 76 | 319 | 2.0 | 7.0 | 0.00 | 0.00 | 0.00 | 30 | 1013.1 |
| 20260505150835 | 76 | 93 | 3.0 | 7.0 | 0.00 | 0.00 | 0.00 | 30 | 1013.1 |
| 20260505140335 | 77 | 322 | 2.0 | 9.0 | 0.00 | 0.00 | 0.00 | 28 | 1013.5 |